Location: ?????
(55.8833°N, 37.6500°E)
Time: 18:10:38
(UTC+00:00)

STARLINK-1056 - Pass Details

Date: 16 July 2020
Orbit: 549 x 550 km, 53.0° (Epoch: 08 August)

Event Time Altitude Azimuth Distance (km) Brightness Sun altitude
Rises 19:15:57 0° 279° (W) 2,722 7.8 -7.5°
Reaches altitude 10° 19:18:55 10° 257° (WSW) 1,824 6.5 -7.7°
Maximum altitude 19:21:22 15° 220° (SW) 1,508 5.7 -7.9°
Drops below altitude 10° 19:23:48 10° 184° (S) 1,818 5.8 -8.0°
Enters shadow 19:24:31 - 177° (S) 2,000 5.9 -8.1°
